• In Moldova, Republic
  • List of Countries
  • For 7 days
  • Water Temperature
  • Satellite Maps
  • Weather Map
  • Weather Widgets
  • user-avatar
    Login

    Hourly Weather Canberra

    Today, 27 April, Thursday

    Time Temperature Precipitation Wind Pressure Humidity
    00:00 +4°C° 0 mm 2 mps 706 mmHg 78%
    01:00 +4°C° 0 mm 2 mps 706 mmHg 78%
    02:00 +4°C° 0 mm 2 mps 706 mmHg 79%
    03:00 +3°C° 0 mm 2 mps 707 mmHg 81%
    04:00 +3°C° 0 mm 2 mps 707 mmHg 83%
    05:00 +3°C° 0 mm 2 mps 707 mmHg 84%
    06:00 +3°C° 0 mm 2 mps 707 mmHg 84%
    07:00 +3°C° 0 mm 2 mps 708 mmHg 84%
    08:00 +5°C° 0 mm 2 mps 708 mmHg 74%
    09:00 +8°C° 0 mm 2 mps 709 mmHg 65%
    10:00 +10°C° 0 mm 2 mps 710 mmHg 55%
    11:00 +12°C° 0 mm 2 mps 710 mmHg 50%
    12:00 +14°C° 0 mm 2 mps 710 mmHg 46%
    13:00 +15°C° 0 mm 2 mps 710 mmHg 42%
    14:00 +14°C° 0 mm 2 mps 710 mmHg 44%
    15:00 +14°C° 0 mm 2 mps 710 mmHg 46%
    16:00 +13°C° 0 mm 2 mps 710 mmHg 48%
    17:00 +12°C° 0 mm 2 mps 710 mmHg 56%
    18:00 +9°C° 0 mm 2 mps 710 mmHg 63%
    19:00 +7°C° 0 mm 2 mps 711 mmHg 70%
    20:00 +6°C° 0 mm 2 mps 711 mmHg 73%
    21:00 +5°C° 0 mm 2 mps 711 mmHg 76%
    22:00 +4°C° 0 mm 2 mps 712 mmHg 79%
    23:00 +4°C° 0 mm 2 mps 712 mmHg 80%

    Tomorrow, 28 April, Friday

    Time Temperature Precipitation Wind Pressure Humidity
    00:00 +5°C° 0 mm 1 mps 712 mmHg 82%
    01:00 +4°C° 0 mm 1 mps 712 mmHg 83%
    02:00 +4°C° 0 mm 1 mps 712 mmHg 84%
    03:00 +4°C° 0 mm 1 mps 712 mmHg 84%
    04:00 +4°C° 0 mm 1 mps 712 mmHg 85%
    05:00 +4°C° 0 mm 1 mps 712 mmHg 84%
    06:00 +4°C° 0 mm 1 mps 712 mmHg 83%
    07:00 +4°C° 0 mm 1 mps 712 mmHg 81%
    08:00 +8°C° 0 mm 1 mps 713 mmHg 70%
    09:00 +11°C° 0 mm 1 mps 713 mmHg 58%
    10:00 +14°C° 0 mm 1 mps 714 mmHg 46%
    11:00 +16°C° 0 mm 1 mps 714 mmHg 43%
    12:00 +18°C° 0 mm 1 mps 714 mmHg 40%
    13:00 +20°C° 0 mm 1 mps 713 mmHg 37%
    14:00 +19°C° 0 mm 1 mps 713 mmHg 39%
    15:00 +19°C° 0 mm 1 mps 713 mmHg 42%
    16:00 +18°C° 0 mm 1 mps 712 mmHg 44%
    17:00 +15°C° 0 mm 1 mps 712 mmHg 57%
    18:00 +12°C° 0 mm 1 mps 712 mmHg 69%
    19:00 +9°C° 0 mm 1 mps 712 mmHg 82%
    20:00 +8°C° 0 mm 1 mps 712 mmHg 85%
    21:00 +8°C° 0 mm 1 mps 713 mmHg 88%
    22:00 +8°C° 0 mm 1 mps 713 mmHg 91%
    23:00 +7°C° 0 mm 1 mps 713 mmHg 92%

    Day after tomorrow, 29 April, Saturday

    Time Temperature Precipitation Wind Pressure Humidity
    00:00 +7°C° 0 mm 1 mps 712 mmHg 93%
    01:00 +7°C° 0 mm 1 mps 712 mmHg 94%
    02:00 +7°C° 0 mm 1 mps 712 mmHg 94%
    03:00 +6°C° 0 mm 1 mps 712 mmHg 95%
    04:00 +6°C° 0 mm 1 mps 712 mmHg 95%
    05:00 +6°C° 0 mm 1 mps 712 mmHg 95%
    06:00 +6°C° 0 mm 1 mps 712 mmHg 95%
    07:00 +6°C° 0 mm 1 mps 712 mmHg 95%
    08:00 +9°C° 0 mm 1 mps 713 mmHg 83%
    09:00 +12°C° 0 mm 1 mps 713 mmHg 71%
    10:00 +15°C° 0 mm 1 mps 714 mmHg 59%
    11:00 +18°C° 0 mm 1 mps 713 mmHg 54%
    12:00 +19°C° 0 mm 1 mps 713 mmHg 49%
    13:00 +21°C° 0 mm 1 mps 713 mmHg 44%
    14:00 +20°C° 0 mm 1 mps 713 mmHg 47%
    15:00 +20°C° 0 mm 1 mps 713 mmHg 50%
    16:00 +18°C° 0 mm 2 mps 712 mmHg 53%
    17:00 +16°C° 0 mm 1 mps 712 mmHg 65%
    18:00 +13°C° 0 mm 1 mps 713 mmHg 78%
    19:00 +10°C° 0 mm 1 mps 713 mmHg 91%
    20:00 +10°C° 0 mm 1 mps 713 mmHg 92%
    21:00 +9°C° 0 mm 1 mps 713 mmHg 93%
    22:00 +9°C° 0 mm 1 mps 713 mmHg 94%
    23:00 +8°C° 0 mm 1 mps 713 mmHg 94%

    30 April, Sunday

    Time Temperature Precipitation Wind Pressure Humidity
    00:00 +8°C° 0 mm 1 mps 713 mmHg 95%
    01:00 +8°C° 0 mm 1 mps 713 mmHg 96%
    02:00 +8°C° 0 mm 1 mps 713 mmHg 96%
    03:00 +7°C° 0 mm 1 mps 713 mmHg 96%
    04:00 +7°C° 0 mm 1 mps 713 mmHg 97%
    05:00 +7°C° 0 mm 1 mps 713 mmHg 96%
    06:00 +7°C° 0 mm 1 mps 713 mmHg 95%
    07:00 +7°C° 0 mm 1 mps 714 mmHg 94%
    08:00 +10°C° 0 mm 1 mps 714 mmHg 80%
    09:00 +13°C° 0 mm 1 mps 714 mmHg 67%
    10:00 +16°C° 0 mm 1 mps 714 mmHg 53%
    11:00 +19°C° 0 mm 1 mps 714 mmHg 48%
    12:00 +20°C° 0 mm 1 mps 714 mmHg 44%
    13:00 +21°C° 0 mm 1 mps 713 mmHg 39%
    14:00 +21°C° 0 mm 1 mps 713 mmHg 41%
    15:00 +20°C° 0 mm 1 mps 712 mmHg 43%
    16:00 +20°C° 0 mm 1 mps 712 mmHg 45%
    17:00 +15°C° 0 mm 1 mps 712 mmHg 60%
    18:00 +12°C° 0 mm 1 mps 711 mmHg 76%
    19:00 +9°C° 0 mm 1 mps 711 mmHg 91%
    20:00 +8°C° 0 mm 1 mps 711 mmHg 93%
    21:00 +8°C° 0 mm 1 mps 711 mmHg 94%
    22:00 +7°C° 0 mm 1 mps 711 mmHg 96%
    23:00 +7°C° 0 mm 1 mps 710 mmHg 96%

    1 May, Monday

    Time Temperature Precipitation Wind Pressure Humidity
    00:00 +7°C° 0 mm 1 mps 710 mmHg 97%
    01:00 +6°C° 0 mm 1 mps 710 mmHg 97%
    02:00 +6°C° 0 mm 1 mps 709 mmHg 97%
    03:00 +6°C° 0 mm 1 mps 709 mmHg 97%
    04:00 +6°C° 0 mm 1 mps 709 mmHg 97%
    05:00 +6°C° 0 mm 1 mps 709 mmHg 96%
    06:00 +7°C° 0 mm 1 mps 709 mmHg 96%
    07:00 +7°C° 0 mm 1 mps 709 mmHg 95%
    08:00 +9°C° 0 mm 2 mps 709 mmHg 83%
    09:00 +13°C° 0 mm 2 mps 709 mmHg 71%
    10:00 +16°C° 0 mm 3 mps 709 mmHg 59%
    11:00 +17°C° 0 mm 3 mps 708 mmHg 57%
    12:00 +18°C° 0 mm 4 mps 708 mmHg 54%
    13:00 +19°C° 0 mm 4 mps 707 mmHg 51%
    14:00 +18°C° 0 mm 4 mps 707 mmHg 53%
    15:00 +18°C° 0 mm 4 mps 706 mmHg 55%
    16:00 +17°C° 0 mm 3 mps 706 mmHg 57%
    17:00 +16°C° 0 mm 3 mps 706 mmHg 66%
    18:00 +14°C° 0 mm 2 mps 706 mmHg 75%
    19:00 +12°C° 0 mm 2 mps 706 mmHg 84%
    20:00 +12°C° 0 mm 2 mps 706 mmHg 85%
    21:00 +10°C° 0 mm 2 mps 706 mmHg 86%
    22:00 +10°C° 0 mm 2 mps 706 mmHg 88%
    23:00 +9°C° 0 mm 2 mps 705 mmHg 87%

    2 May, Tuesday

    Time Temperature Precipitation Wind Pressure Humidity
    00:00 +9°C° 0 mm 2 mps 705 mmHg 86%
    01:00 +8°C° 0 mm 2 mps 704 mmHg 85%
    02:00 +8°C° 0 mm 2 mps 704 mmHg 87%
    03:00 +8°C° 0 mm 2 mps 704 mmHg 88%
    04:00 +7°C° 0 mm 2 mps 703 mmHg 89%
    05:00 +7°C° 0 mm 2 mps 704 mmHg 90%
    06:00 +7°C° 0 mm 2 mps 704 mmHg 90%
    07:00 +7°C° 0 mm 2 mps 704 mmHg 90%
    08:00 +9°C° 0.1 mm 3 mps 704 mmHg 84%
    09:00 +11°C° 0.1 mm 3 mps 704 mmHg 78%
    10:00 +13°C° 0.1 mm 4 mps 704 mmHg 72%
    11:00 +12°C° 0.2 mm 4 mps 704 mmHg 75%
    12:00 +12°C° 0.2 mm 4 mps 703 mmHg 79%
    13:00 +11°C° 0.2 mm 4 mps 703 mmHg 82%
    14:00 +11°C° 0 mm 4 mps 703 mmHg 77%
    15:00 +11°C° 0 mm 4 mps 703 mmHg 73%
    16:00 +10°C° 0 mm 5 mps 703 mmHg 68%
    17:00 +10°C° 0 mm 4 mps 704 mmHg 68%
    18:00 +8°C° 0 mm 4 mps 705 mmHg 68%
    19:00 +8°C° 0 mm 3 mps 705 mmHg 68%
    20:00 +7°C° 0 mm 3 mps 705 mmHg 69%
    21:00 +7°C° 0 mm 3 mps 706 mmHg 69%
    22:00 +5°C° 0 mm 3 mps 706 mmHg 70%
    23:00 +4°C° 0 mm 3 mps 706 mmHg 71%
    Show more